Time,TemperatureF,DewpointF,PressureIn,WindDirection,WindDirectionDegrees,WindSpeedMPH,WindSpeedGustMPH,Humidity,HourlyPrecipIn,Conditions,Clouds,dailyrainin,SoftwareType,DateUTC
2013-03-02 08:34:00,35.8,16.5,29.83,North,353,4.0,4.0,45,0.00,,---,0.00,VWS V13.01,2013-03-02 14:34:00,
2013-03-02 08:35:00,35.8,16.5,29.83,North,353,4.0,4.0,45,0.00,,---,0.00,VWS V13.01,2013-03-02 14:35:00,
2013-03-02 08:40:00,36.0,15.6,29.83,WNW,297,4.9,6.3,43,0.00,,---,0.00,VWS V13.01,2013-03-02 14:40:00,
2013-03-02 08:45:00,36.3,16.0,29.83,North,0,8.3,9.6,43,0.00,,---,0.00,VWS V13.01,2013-03-02 14:45:00,
2013-03-02 08:50:00,36.7,16.3,29.83,NW,306,3.6,5.8,43,0.00,,---,0.00,VWS V13.01,2013-03-02 14:50:00,
2013-03-02 08:55:00,37.0,16.1,29.83,WNW,285,8.1,8.3,42,0.00,,---,0.00,VWS V13.01,2013-03-02 14:55:00,
2013-03-02 09:00:00,37.4,15.9,29.83,West,276,6.7,6.7,41,0.00,,---,0.00,VWS V13.01,2013-03-02 15:00:00,
2013-03-02 09:05:00,37.6,16.0,29.83,WNW,282,5.4,5.8,41,0.00,,---,0.00,VWS V13.01,2013-03-02 15:05:00,
2013-03-02 09:10:00,38.1,16.5,29.83,North,353,7.6,8.7,41,0.00,,---,0.00,VWS V13.01,2013-03-02 15:10:00,
2013-03-02 09:15:00,38.1,16.5,29.83,WNW,289,7.6,8.3,41,0.00,,---,0.00,VWS V13.01,2013-03-02 15:15:00,
2013-03-02 09:20:00,38.5,16.8,29.83,WNW,300,8.3,10.1,41,0.00,,---,0.00,VWS V13.01,2013-03-02 15:20:00,
2013-03-02 09:25:00,39.2,16.9,29.83,WNW,301,5.8,8.7,40,0.00,,---,0.00,VWS V13.01,2013-03-02 15:25:00,
2013-03-02 09:30:00,39.4,17.1,29.83,NNW,338,10.5,10.5,40,0.00,,---,0.00,VWS V13.01,2013-03-02 15:30:00,
2013-03-02 09:35:00,39.4,17.1,29.83,WNW,285,7.6,7.6,40,0.00,,---,0.00,VWS V13.01,2013-03-02 15:35:00,
2013-03-02 09:40:00,39.4,17.1,29.83,North,349,7.6,7.6,40,0.00,,---,0.00,VWS V13.01,2013-03-02 15:40:00,
2013-03-02 09:45:00,39.4,17.1,29.83,West,281,7.2,7.2,40,0.00,,---,0.00,VWS V13.01,2013-03-02 15:45:00,
2013-03-02 09:50:00,39.4,17.1,29.83,North,357,7.6,7.6,40,0.00,,---,0.00,VWS V13.01,2013-03-02 15:50:00,
2013-03-02 09:55:00,39.4,17.1,29.83,NNE,12,10.5,10.5,40,0.00,,---,0.00,VWS V13.01,2013-03-02 15:55:00,
2013-03-02 10:00:00,39.4,17.1,29.83,NNE,12,4.0,4.0,40,0.00,,---,0.00,VWS V13.01,2013-03-02 16:00:00,
2013-03-02 10:05:00,39.4,17.1,29.83,NNW,348,5.4,10.1,40,0.00,,---,0.00,VWS V13.01,2013-03-02 16:05:00,
2013-03-02 10:10:00,39.4,17.1,29.83,North,353,7.2,9.6,40,0.00,,---,0.00,VWS V13.01,2013-03-02 16:10:00,
2013-03-02 10:15:00,39.4,17.1,29.83,NW,322,8.1,8.1,40,0.00,,---,0.00,VWS V13.01,2013-03-02 16:15:00,
2013-03-02 10:20:00,39.4,17.1,29.83,West,271,6.3,6.3,40,0.00,,---,0.00,VWS V13.01,2013-03-02 16:20:00,
2013-03-02 10:25:00,39.4,17.1,29.83,NW,310,10.1,10.1,40,0.00,,---,0.00,VWS V13.01,2013-03-02 16:25:00,
2013-03-02 10:30:00,39.4,17.1,29.83,NW,304,8.7,8.7,40,0.00,,---,0.00,VWS V13.01,2013-03-02 16:30:00,
2013-03-02 10:35:00,39.4,17.1,29.83,NNW,341,5.4,5.8,40,0.00,,---,0.00,VWS V13.01,2013-03-02 16:35:00,
2013-03-02 10:40:00,39.4,17.1,29.83,WNW,285,7.6,7.6,40,0.00,,---,0.00,VWS V13.01,2013-03-02 16:40:00,
2013-03-02 10:45:00,39.4,17.1,29.83,NW,304,2.7,2.7,40,0.00,,---,0.00,VWS V13.01,2013-03-02 16:45:00,
2013-03-02 10:50:00,39.4,17.1,29.83,West,279,5.4,5.4,40,0.00,,---,0.00,VWS V13.01,2013-03-02 16:50:00,
2013-03-02 10:55:00,39.4,17.1,29.83,WSW,252,7.2,7.2,40,0.00,,---,0.00,VWS V13.01,2013-03-02 16:55:00,
2013-03-02 11:00:00,39.4,17.1,29.83,North,5,5.4,6.3,40,0.00,,---,0.00,VWS V13.01,2013-03-02 17:00:00,
2013-03-02 11:05:00,39.4,17.1,29.83,NW,319,9.2,9.2,40,0.00,,---,0.00,VWS V13.01,2013-03-02 17:05:00,
2013-03-02 11:10:00,39.4,17.1,29.83,NNW,339,7.6,7.6,40,0.00,,---,0.00,VWS V13.01,2013-03-02 17:10:00,
2013-03-02 11:15:00,39.4,17.1,29.83,WNW,297,8.1,8.1,40,0.00,,---,0.00,VWS V13.01,2013-03-02 17:15:00,
2013-03-02 11:20:00,47.7,20.7,29.83,North,353,8.1,8.1,34,0.00,,---,0.00,VWS V13.01,2013-03-02 17:20:00,
2013-03-02 11:25:00,47.7,20.7,29.83,WNW,294,9.2,9.2,34,0.00,,---,0.00,VWS V13.01,2013-03-02 17:25:00,
2013-03-02 11:30:00,47.7,20.7,29.83,WNW,297,3.1,3.1,34,0.00,,---,0.00,VWS V13.01,2013-03-02 17:30:00,
2013-03-02 11:35:00,47.7,20.7,29.83,West,274,3.6,4.0,34,0.00,,---,0.00,VWS V13.01,2013-03-02 17:35:00,
2013-03-02 11:40:00,47.7,20.7,29.83,North,7,3.1,3.1,34,0.00,,---,0.00,VWS V13.01,2013-03-02 17:40:00,
2013-03-02 11:45:00,47.7,20.7,29.83,WNW,303,12.8,12.8,34,0.00,,---,0.00,VWS V13.01,2013-03-02 17:45:00,
2013-03-02 11:50:00,47.7,20.7,29.83,WNW,293,2.7,12.8,34,0.00,,---,0.00,VWS V13.01,2013-03-02 17:50:00,
2013-03-02 11:55:00,47.7,20.7,29.80,NNW,334,8.1,8.1,34,0.00,,---,0.00,VWS V13.01,2013-03-02 17:55:00,
2013-03-02 12:00:00,47.7,20.7,29.80,NW,324,3.1,3.1,34,0.00,,---,0.00,VWS V13.01,2013-03-02 18:00:00,
2013-03-02 12:05:00,47.7,20.7,29.80,WNW,301,7.2,7.2,34,0.00,,---,0.00,VWS V13.01,2013-03-02 18:05:00,
2013-03-02 12:10:00,47.7,20.7,29.80,WNW,300,6.3,6.3,34,0.00,,---,0.00,VWS V13.01,2013-03-02 18:10:00,
2013-03-02 12:15:00,47.7,20.7,29.80,North,357,8.3,8.3,34,0.00,,---,0.00,VWS V13.01,2013-03-02 18:15:00,
2013-03-02 12:20:00,47.7,20.7,29.80,NNW,340,6.3,6.3,34,0.00,,---,0.00,VWS V13.01,2013-03-02 18:20:00,
2013-03-02 12:25:00,47.7,20.7,29.77,NW,316,8.7,8.7,34,0.00,,---,0.00,VWS V13.01,2013-03-02 18:25:00,
2013-03-02 12:30:00,47.7,20.7,29.77,WNW,294,6.7,6.7,34,0.00,,---,0.00,VWS V13.01,2013-03-02 18:30:00,
2013-03-02 12:35:00,47.7,20.7,29.77,North,357,5.4,6.7,34,0.00,,---,0.00,VWS V13.01,2013-03-02 18:35:00,
2013-03-02 12:40:00,47.7,20.7,29.77,NW,311,8.7,8.7,34,0.00,,---,0.00,VWS V13.01,2013-03-02 18:40:00,
2013-03-02 12:45:00,47.7,20.7,29.77,North,353,7.6,7.6,34,0.00,,---,0.00,VWS V13.01,2013-03-02 18:45:00,
2013-03-02 12:50:00,47.7,20.7,29.77,NW,315,3.6,3.6,34,0.00,,---,0.00,VWS V13.01,2013-03-02 18:50:00,
2013-03-02 12:55:00,47.7,20.7,29.77,NW,305,3.6,3.6,34,0.00,,---,0.00,VWS V13.01,2013-03-02 18:55:00,
2013-03-02 13:00:00,47.7,20.7,29.77,WSW,258,5.8,5.8,34,0.00,,---,0.00,VWS V13.01,2013-03-02 19:00:00,
2013-03-02 13:05:00,50.4,20.1,29.77,NW,314,5.4,5.4,30,0.00,,---,0.00,VWS V13.01,2013-03-02 19:05:00,
2013-03-02 13:10:00,50.4,20.1,29.77,NW,312,3.6,3.6,30,0.00,,---,0.00,VWS V13.01,2013-03-02 19:10:00,
2013-03-02 13:15:00,50.4,20.1,29.74,NNW,334,4.0,4.0,30,0.00,,---,0.00,VWS V13.01,2013-03-02 19:15:00,
2013-03-02 13:20:00,50.4,20.1,29.74,West,279,8.7,8.7,30,0.00,,---,0.00,VWS V13.01,2013-03-02 19:20:00,
2013-03-02 13:25:00,50.4,20.1,29.74,West,270,7.6,7.6,30,0.00,,---,0.00,VWS V13.01,2013-03-02 19:25:00,
2013-03-02 13:30:00,50.4,20.1,29.74,NNE,33,12.3,12.3,30,0.00,,---,0.00,VWS V13.01,2013-03-02 19:30:00,
2013-03-02 13:35:00,51.6,20.4,29.74,West,278,8.1,8.1,29,0.00,,---,0.00,VWS V13.01,2013-03-02 19:35:00,
2013-03-02 13:40:00,51.6,20.4,29.74,West,278,8.1,8.1,29,0.00,,---,0.00,VWS V13.01,2013-03-02 19:40:00,
2013-03-02 13:45:00,51.6,20.4,29.74,WNW,291,5.8,5.8,29,0.00,,---,0.00,VWS V13.01,2013-03-02 19:45:00,
2013-03-02 13:50:00,51.6,20.4,29.74,WNW,290,8.1,8.1,29,0.00,,---,0.00,VWS V13.01,2013-03-02 19:50:00,
2013-03-02 13:55:00,51.6,20.4,29.74,WNW,290,8.1,8.1,29,0.00,,---,0.00,VWS V13.01,2013-03-02 19:55:00,
2013-03-02 14:00:00,51.6,20.4,29.74,WSW,240,5.8,7.6,29,0.00,,---,0.00,VWS V13.01,2013-03-02 20:00:00,
2013-03-02 14:05:00,51.6,20.4,29.74,West,273,8.3,8.3,29,0.00,,---,0.00,VWS V13.01,2013-03-02 20:05:00,
2013-03-02 14:10:00,51.6,20.4,29.74,West,281,6.3,6.3,29,0.00,,---,0.00,VWS V13.01,2013-03-02 20:10:00,
2013-03-02 14:15:00,52.2,20.9,29.74,West,281,6.3,6.3,29,0.00,,---,0.00,VWS V13.01,2013-03-02 20:15:00,
2013-03-02 14:20:00,52.2,20.9,29.74,WNW,294,11.4,11.4,29,0.00,,---,0.00,VWS V13.01,2013-03-02 20:20:00,
2013-03-02 14:24:00,52.2,20.9,29.74,WNW,296,8.7,8.7,29,0.00,,---,0.00,VWS V13.01,2013-03-02 20:24:00,
2013-03-02 14:29:00,52.2,20.9,29.71,NNW,341,10.1,10.1,29,0.00,,---,0.00,VWS V13.01,2013-03-02 20:29:00,
2013-03-02 14:35:00,52.2,20.9,29.71,West,276,11.9,11.9,29,0.00,,---,0.00,VWS V13.01,2013-03-02 20:35:00,
2013-03-02 14:40:00,52.2,20.9,29.71,NW,324,5.4,5.4,29,0.00,,---,0.00,VWS V13.01,2013-03-02 20:40:00,
2013-03-02 14:45:00,52.2,20.9,29.71,NW,310,10.5,10.5,29,0.00,,---,0.00,VWS V13.01,2013-03-02 20:45:00,
2013-03-02 14:50:00,51.8,20.6,29.71,NW,310,10.5,10.5,29,0.00,,---,0.00,VWS V13.01,2013-03-02 20:50:00,
2013-03-02 14:55:00,51.8,20.6,29.71,NNW,332,3.1,3.1,29,0.00,,---,0.00,VWS V13.01,2013-03-02 20:55:00,
2013-03-02 15:00:00,51.8,20.6,29.71,NNW,332,3.1,3.1,29,0.00,,---,0.00,VWS V13.01,2013-03-02 21:00:00,
2013-03-02 15:05:00,51.8,20.6,29.71,NNW,332,3.1,3.1,29,0.00,,---,0.00,VWS V13.01,2013-03-02 21:05:00,
2013-03-02 15:10:00,51.8,20.6,29.71,NNW,331,6.3,6.3,29,0.00,,---,0.00,VWS V13.01,2013-03-02 21:10:00,
2013-03-02 15:15:00,51.8,20.6,29.68,NW,318,4.0,4.0,29,0.00,,---,0.00,VWS V13.01,2013-03-02 21:15:00,
2013-03-02 15:20:00,51.8,20.6,29.68,WNW,282,11.4,11.4,29,0.00,,---,0.00,VWS V13.01,2013-03-02 21:20:00,
2013-03-02 15:25:00,53.1,21.7,29.68,WNW,282,11.4,11.4,29,0.00,,---,0.00,VWS V13.01,2013-03-02 21:25:00,
2013-03-02 15:30:00,53.1,21.7,29.68,WNW,291,4.0,4.0,29,0.00,,---,0.00,VWS V13.01,2013-03-02 21:30:00,
2013-03-02 15:35:00,53.1,21.7,29.68,NW,305,3.6,3.6,29,0.00,,---,0.00,VWS V13.01,2013-03-02 21:35:00,
2013-03-02 15:40:00,53.1,21.7,29.68,NW,305,3.6,3.6,29,0.00,,---,0.00,VWS V13.01,2013-03-02 21:40:00,
2013-03-02 15:45:00,53.1,22.5,29.68,NNW,343,9.6,9.6,30,0.00,,---,0.00,VWS V13.01,2013-03-02 21:45:00,
2013-03-02 15:50:00,53.1,22.5,29.68,WNW,298,2.2,2.2,30,0.00,,---,0.00,VWS V13.01,2013-03-02 21:50:00,
2013-03-02 15:55:00,53.1,22.5,29.68,WNW,284,6.3,6.3,30,0.00,,---,0.00,VWS V13.01,2013-03-02 21:55:00,
2013-03-02 16:00:00,53.1,22.5,29.68,WNW,284,6.3,6.3,30,0.00,,---,0.00,VWS V13.01,2013-03-02 22:00:00,
2013-03-02 16:05:00,53.1,21.7,29.68,WNW,289,3.6,3.6,29,0.00,,---,0.00,VWS V13.01,2013-03-02 22:05:00,
2013-03-02 16:10:00,53.1,22.5,29.68,WNW,297,4.0,4.0,30,0.00,,---,0.00,VWS V13.01,2013-03-02 22:10:00,
2013-03-02 16:15:00,53.1,22.5,29.68,WNW,297,4.0,4.0,30,0.00,,---,0.00,VWS V13.01,2013-03-02 22:15:00,
2013-03-02 16:20:00,53.1,22.5,29.68,WNW,297,4.0,4.0,30,0.00,,---,0.00,VWS V13.01,2013-03-02 22:20:00,
2013-03-02 16:25:00,53.1,22.5,29.68,WNW,297,4.0,4.0,30,0.00,,---,0.00,VWS V13.01,2013-03-02 22:25:00,
2013-03-02 16:30:00,53.1,22.5,29.68,NNE,12,5.4,5.4,30,0.00,,---,0.00,VWS V13.01,2013-03-02 22:30:00,
2013-03-02 16:35:00,53.1,22.5,29.68,NNE,12,5.4,5.4,30,0.00,,---,0.00,VWS V13.01,2013-03-02 22:35:00,
2013-03-02 16:40:00,53.2,21.8,29.68,NNW,333,5.4,5.4,29,0.00,,---,0.00,VWS V13.01,2013-03-02 22:40:00,
2013-03-02 16:45:00,53.2,21.8,29.68,NW,313,3.6,3.6,29,0.00,,---,0.00,VWS V13.01,2013-03-02 22:45:00,
2013-03-02 16:50:00,53.2,22.6,29.68,NW,313,3.6,3.6,30,0.00,,---,0.00,VWS V13.01,2013-03-02 22:50:00,
2013-03-02 16:55:00,53.2,22.6,29.68,SW,226,2.2,2.2,30,0.00,,---,0.00,VWS V13.01,2013-03-02 22:55:00,
2013-03-02 17:00:00,53.2,22.6,29.68,NE,41,4.0,4.0,30,0.00,,---,0.00,VWS V13.01,2013-03-02 23:00:00,
2013-03-02 17:05:00,53.2,22.6,29.68,West,280,5.4,5.4,30,0.00,,---,0.00,VWS V13.01,2013-03-02 23:05:00,
2013-03-02 17:10:00,53.2,22.6,29.68,West,280,5.4,5.4,30,0.00,,---,0.00,VWS V13.01,2013-03-02 23:10:00,
2013-03-02 17:15:00,53.2,22.6,29.68,NW,324,4.9,4.9,30,0.00,,---,0.00,VWS V13.01,2013-03-02 23:15:00,
2013-03-02 17:20:00,53.1,22.5,29.68,NW,307,3.1,3.1,30,0.00,,---,0.00,VWS V13.01,2013-03-02 23:20:00,
2013-03-02 17:25:00,53.1,22.5,29.68,NW,307,3.1,3.1,30,0.00,,---,0.00,VWS V13.01,2013-03-02 23:25:00,
2013-03-02 17:30:00,52.9,22.3,29.68,ENE,67,6.3,6.3,30,0.00,,---,0.00,VWS V13.01,2013-03-02 23:30:00,
2013-03-02 17:35:00,52.9,22.3,29.68,North,353,4.0,4.0,30,0.00,,---,0.00,VWS V13.01,2013-03-02 23:35:00,
2013-03-02 17:40:00,52.7,22.2,29.68,North,6,6.3,6.3,30,0.00,,---,0.00,VWS V13.01,2013-03-02 23:40:00,
2013-03-02 17:45:00,52.7,22.2,29.68,North,6,6.3,6.3,30,0.00,,---,0.00,VWS V13.01,2013-03-02 23:45:00,
2013-03-02 17:50:00,52.5,22.0,29.68,WNW,293,3.1,3.1,30,0.00,,---,0.00,VWS V13.01,2013-03-02 23:50:00,
2013-03-02 17:55:00,52.2,22.5,29.68,NNW,338,0.0,0.0,31,0.00,,---,0.00,VWS V13.01,2013-03-02 23:55:00,
2013-03-02 18:00:00,52.2,22.5,29.68,NNW,338,0.0,0.0,31,0.00,,---,0.00,VWS V13.01,2013-03-03 00:00:00,
2013-03-02 18:05:00,52.0,22.3,29.68,NNW,345,3.1,3.1,31,0.00,,---,0.00,VWS V13.01,2013-03-03 00:05:00,
2013-03-02 18:10:00,52.0,22.3,29.68,NNW,327,0.0,0.0,31,0.00,,---,0.00,VWS V13.01,2013-03-03 00:10:00,
2013-03-02 18:15:00,51.6,22.0,29.68,NW,320,3.6,3.6,31,0.00,,---,0.00,VWS V13.01,2013-03-03 00:15:00,
2013-03-02 18:20:00,51.6,22.0,29.68,NW,320,3.6,3.6,31,0.00,,---,0.00,VWS V13.01,2013-03-03 00:20:00,
2013-03-02 18:25:00,51.4,21.8,29.68,WNW,303,3.1,3.1,31,0.00,,---,0.00,VWS V13.01,2013-03-03 00:25:00,
2013-03-02 18:30:00,50.9,22.1,29.68,NNW,338,2.2,2.2,32,0.00,,---,0.00,VWS V13.01,2013-03-03 00:30:00,